Terminal Aerodrome Forecast
Issued by NWS Houston/Galveston, TX

Home | Current Version | Previous Version | Text Only | Print | Product List | Glossary On
Versions: 1 2 3 4 5 6 7 8 9 10 11 12 13 14 15 16 17 18 19 20 21 22 23 24 25 26 27 28 29 30 31 32 33 34 35 36 37 38 39 40 41 42 43 44 45 46 47 48 49 50
000
FTUS44 KHGX 270927
TAFCLL
TAFCLL
TAF AMD
KCLL 270927Z 2709/2806 05010KT P6SM -RA SCT015 BKN045
     FM271100 15007KT 6SM BR FEW006 BKN015
     FM271500 16008KT P6SM BKN025
     FM271800 18014KT P6SM VCSH BKN035
     FM280200 13005KT P6SM BKN045=

USA.gov is the U.S. government's official web portal to all federal, state and local government web resources and services.